When you browse on this site, cookies collect data to enhance your experience and personalize the content and advertising you see.
Visit our Privacy Policy to learn more. By continuing to use the site, you agree to this use of cookies and data.
  • In Österreich
  • Länderverzeichnis
  • Für 7 Tage
  • Wassertemperatur
  • Wetterkarte
  • News
  • Widgets
  • user-avatar
    Anmelden

    Stündliche Wetter Zaranj

    Heute, 29 Februar, Samstag

    Zeit Temperatur Niederschläge Wind Luftdruck Luftfeuchtigkeit
    00:00 +13°C° 0 mm 1 m/S 719 mmHg 44%
    01:00 +13°C° 0 mm 2 m/S 719 mmHg 45%
    02:00 +12°C° 0 mm 2 m/S 719 mmHg 47%
    03:00 +12°C° 0 mm 2 m/S 718 mmHg 48%
    04:00 +12°C° 0 mm 2 m/S 718 mmHg 51%
    05:00 +12°C° 0 mm 1 m/S 718 mmHg 51%
    06:00 +12°C° 0 mm 1 m/S 719 mmHg 51%
    07:00 +11°C° 0 mm 1 m/S 719 mmHg 52%
    08:00 +13°C° 0 mm 1 m/S 719 mmHg 47%
    09:00 +15°C° 0 mm 1 m/S 719 mmHg 42%
    10:00 +18°C° 0 mm 1 m/S 720 mmHg 37%
    11:00 +19°C° 0 mm 1 m/S 719 mmHg 34%
    12:00 +18°C° 0 mm 0 m/S 719 mmHg 32%
    13:00 +19°C° 0 mm 0 m/S 718 mmHg 29%
    14:00 +19°C° 0 mm 0 m/S 718 mmHg 28%
    15:00 +22°C° 0 mm 1 m/S 717 mmHg 27%
    16:00 +22°C° 0 mm 1 m/S 717 mmHg 26%
    17:00 +22°C° 0 mm 1 m/S 717 mmHg 27%
    18:00 +20°C° 0 mm 2 m/S 718 mmHg 29%
    19:00 +19°C° 0 mm 2 m/S 718 mmHg 31%
    20:00 +18°C° 0 mm 2 m/S 718 mmHg 33%
    21:00 +18°C° 0 mm 2 m/S 718 mmHg 34%
    22:00 +17°C° 0 mm 2 m/S 718 mmHg 36%
    23:00 +16°C° 0 mm 1 m/S 718 mmHg 37%

    Morgen, 1 März, Sonntag

    Zeit Temperatur Niederschläge Wind Luftdruck Luftfeuchtigkeit
    00:00 +16°C° 0 mm 1 m/S 718 mmHg 39%
    01:00 +15°C° 0 mm 1 m/S 718 mmHg 40%
    02:00 +15°C° 0 mm 1 m/S 718 mmHg 41%
    03:00 +15°C° 0 mm 1 m/S 717 mmHg 41%
    04:00 +14°C° 0 mm 1 m/S 717 mmHg 42%
    05:00 +14°C° 0 mm 1 m/S 718 mmHg 41%
    06:00 +14°C° 0 mm 1 m/S 718 mmHg 41%
    07:00 +14°C° 0 mm 1 m/S 718 mmHg 41%
    08:00 +16°C° 0 mm 1 m/S 719 mmHg 36%
    09:00 +19°C° 0 mm 1 m/S 719 mmHg 31%
    10:00 +21°C° 0 mm 1 m/S 719 mmHg 26%
    11:00 +22°C° 0 mm 1 m/S 719 mmHg 23%
    12:00 +24°C° 0 mm 1 m/S 719 mmHg 21%
    13:00 +25°C° 0 mm 1 m/S 718 mmHg 19%
    14:00 +25°C° 0 mm 1 m/S 718 mmHg 18%
    15:00 +26°C° 0 mm 2 m/S 717 mmHg 17%
    16:00 +26°C° 0 mm 2 m/S 717 mmHg 16%
    17:00 +25°C° 0 mm 2 m/S 717 mmHg 19%
    18:00 +24°C° 0 mm 2 m/S 717 mmHg 21%
    19:00 +23°C° 0 mm 2 m/S 718 mmHg 24%
    20:00 +21°C° 0 mm 2 m/S 718 mmHg 25%
    21:00 +20°C° 0 mm 2 m/S 718 mmHg 25%
    22:00 +20°C° 0 mm 2 m/S 718 mmHg 26%
    23:00 +19°C° 0 mm 2 m/S 718 mmHg 27%

    übermorgen, 2 März, Montag

    Zeit Temperatur Niederschläge Wind Luftdruck Luftfeuchtigkeit
    00:00 +19°C° 0 mm 2 m/S 718 mmHg 28%
    01:00 +18°C° 0 mm 2 m/S 718 mmHg 29%
    02:00 +17°C° 0 mm 2 m/S 717 mmHg 29%
    03:00 +18°C° 0 mm 1 m/S 717 mmHg 30%
    04:00 +16°C° 0 mm 1 m/S 716 mmHg 30%
    05:00 +16°C° 0 mm 1 m/S 717 mmHg 30%
    06:00 +16°C° 0 mm 1 m/S 717 mmHg 31%
    07:00 +16°C° 0 mm 1 m/S 717 mmHg 31%
    08:00 +19°C° 0 mm 1 m/S 718 mmHg 27%
    09:00 +21°C° 0 mm 1 m/S 718 mmHg 23%
    10:00 +24°C° 0 mm 1 m/S 718 mmHg 18%
    11:00 +25°C° 0 mm 1 m/S 718 mmHg 17%
    12:00 +26°C° 0 mm 1 m/S 717 mmHg 15%
    13:00 +27°C° 0 mm 1 m/S 717 mmHg 14%
    14:00 +28°C° 0 mm 2 m/S 716 mmHg 13%
    15:00 +29°C° 0 mm 2 m/S 715 mmHg 12%
    16:00 +29°C° 0 mm 3 m/S 715 mmHg 11%
    17:00 +28°C° 0 mm 2 m/S 715 mmHg 13%
    18:00 +27°C° 0 mm 2 m/S 715 mmHg 15%
    19:00 +25°C° 0 mm 2 m/S 715 mmHg 16%
    20:00 +25°C° 0 mm 2 m/S 715 mmHg 17%
    21:00 +24°C° 0 mm 3 m/S 715 mmHg 18%
    22:00 +24°C° 0 mm 3 m/S 715 mmHg 18%
    23:00 +22°C° 0 mm 3 m/S 714 mmHg 20%

    3 März, Dienstag

    Zeit Temperatur Niederschläge Wind Luftdruck Luftfeuchtigkeit
    00:00 +22°C° 0 mm 3 m/S 714 mmHg 21%
    01:00 +21°C° 0 mm 3 m/S 714 mmHg 22%
    02:00 +21°C° 0 mm 3 m/S 714 mmHg 24%
    03:00 +20°C° 0 mm 3 m/S 713 mmHg 26%
    04:00 +20°C° 0 mm 4 m/S 713 mmHg 27%
    05:00 +20°C° 0 mm 4 m/S 714 mmHg 29%
    06:00 +19°C° 0 mm 5 m/S 714 mmHg 31%
    07:00 +19°C° 0 mm 6 m/S 715 mmHg 33%
    08:00 +20°C° 0 mm 7 m/S 715 mmHg 31%
    09:00 +21°C° 0 mm 9 m/S 716 mmHg 29%
    10:00 +22°C° 0 mm 10 m/S 716 mmHg 27%
    11:00 +23°C° 0 mm 9 m/S 716 mmHg 26%
    12:00 +23°C° 0 mm 9 m/S 716 mmHg 25%
    13:00 +24°C° 0 mm 9 m/S 715 mmHg 23%
    14:00 +24°C° 0 mm 8 m/S 715 mmHg 23%
    15:00 +24°C° 0 mm 7 m/S 715 mmHg 23%
    16:00 +24°C° 0 mm 6 m/S 714 mmHg 23%
    17:00 +23°C° 0 mm 7 m/S 715 mmHg 27%
    18:00 +21°C° 0 mm 8 m/S 715 mmHg 31%
    19:00 +20°C° 0 mm 8 m/S 715 mmHg 35%
    20:00 +18°C° 0 mm 9 m/S 716 mmHg 38%
    21:00 +17°C° 0 mm 10 m/S 716 mmHg 41%
    22:00 +16°C° 0 mm 10 m/S 717 mmHg 44%
    23:00 +14°C° 0 mm 10 m/S 717 mmHg 46%

    4 März, Mittwoch

    Zeit Temperatur Niederschläge Wind Luftdruck Luftfeuchtigkeit
    00:00 +13°C° 0 mm 10 m/S 717 mmHg 47%
    01:00 +13°C° 0 mm 10 m/S 717 mmHg 49%
    02:00 +12°C° 0 mm 10 m/S 717 mmHg 52%
    03:00 +11°C° 0 mm 10 m/S 717 mmHg 54%
    04:00 +9°C° 0 mm 10 m/S 717 mmHg 56%
    05:00 +9°C° 0 mm 10 m/S 718 mmHg 56%
    06:00 +9°C° 0 mm 10 m/S 718 mmHg 57%
    07:00 +8°C° 0 mm 10 m/S 718 mmHg 57%
    08:00 +9°C° 0 mm 10 m/S 719 mmHg 51%
    09:00 +11°C° 0 mm 10 m/S 719 mmHg 46%
    10:00 +12°C° 0 mm 11 m/S 719 mmHg 40%
    11:00 +13°C° 0 mm 11 m/S 719 mmHg 37%
    12:00 +14°C° 0 mm 10 m/S 718 mmHg 34%
    13:00 +16°C° 0 mm 10 m/S 718 mmHg 31%
    14:00 +16°C° 0 mm 10 m/S 717 mmHg 31%
    15:00 +16°C° 0 mm 10 m/S 717 mmHg 32%
    16:00 +16°C° 0 mm 10 m/S 717 mmHg 32%
    17:00 +14°C° 0 mm 10 m/S 717 mmHg 34%
    18:00 +13°C° 0 mm 9 m/S 717 mmHg 36%
    19:00 +12°C° 0 mm 9 m/S 717 mmHg 38%
    20:00 +11°C° 0 mm 9 m/S 718 mmHg 40%
    21:00 +11°C° 0 mm 8 m/S 718 mmHg 42%
    22:00 +10°C° 0 mm 8 m/S 719 mmHg 44%
    23:00 +8°C° 0 mm 9 m/S 718 mmHg 46%

    5 März, Donnerstag

    Zeit Temperatur Niederschläge Wind Luftdruck Luftfeuchtigkeit
    00:00 +8°C° 0 mm 10 m/S 718 mmHg 48%
    01:00 +7°C° 0 mm 10 m/S 718 mmHg 49%
    02:00 +7°C° 0 mm 10 m/S 718 mmHg 50%
    03:00 +6°C° 0 mm 10 m/S 718 mmHg 50%
    04:00 +6°C° 0 mm 11 m/S 718 mmHg 51%
    05:00 +6°C° 0 mm 11 m/S 718 mmHg 52%
    06:00 +6°C° 0 mm 11 m/S 719 mmHg 54%
    07:00 +4°C° 0 mm 11 m/S 719 mmHg 55%
    08:00 +5°C° 0 mm 12 m/S 719 mmHg 50%
    09:00 +7°C° 0 mm 12 m/S 720 mmHg 46%
    10:00 +8°C° 0 mm 12 m/S 720 mmHg 41%
    11:00 +9°C° 0 mm 12 m/S 719 mmHg 38%
    12:00 +11°C° 0 mm 11 m/S 719 mmHg 35%
    13:00 +12°C° 0 mm 11 m/S 718 mmHg 33%
    14:00 +13°C° 0 mm 11 m/S 717 mmHg 31%
    15:00 +13°C° 0 mm 12 m/S 717 mmHg 29%
    16:00 +13°C° 0 mm 12 m/S 717 mmHg 27%
    17:00 +12°C° 0 mm 12 m/S 717 mmHg 28%
    18:00 +10°C° 0 mm 12 m/S 717 mmHg 30%
    19:00 +9°C° 0 mm 12 m/S 717 mmHg 31%
    20:00 +9°C° 0 mm 12 m/S 718 mmHg 33%
    21:00 +9°C° 0 mm 12 m/S 718 mmHg 34%
    22:00 +8°C° 0 mm 12 m/S 719 mmHg 35%
    23:00 +8°C° 0 mm 12 m/S 718 mmHg 35%
    Mehr zeigen